Regional Weather Roundup
Issued by NWS

Home | Current Version | Previous Version | Text Only | Print | Product List | Glossary Off
Versions: 1 2 3 4 5 6 7 8 9 10 11 12 13 14 15 16 17 18 19 20 21 22 23 24 25 26 27 28 29 30 31 32 33 34 35 36 37 38 39 40 41 42 43 44 45 46 47 48 49 50

000
ASUS43 KBIS 191159
RWRND

NORTH DAKOTA REGIONAL WEATHER ROUNDUP
NATIONAL WEATHER SERVICE BISMARCK ND
700 AM CDT FRI SEP 19 2014

NOTE: "FAIR" INDICATES FEW OR NO CLOUDS BELOW 12,000 FEET WITH NO
SIGNIFICANT WEATHER AND/OR OBSTRUCTIONS TO VISIBILITY.


NDZ001>003-009>011-017-191300-
NORTHWEST NORTH DAKOTA

CITY           SKY/WX    TMP DP  RH WIND       PRES   REMARKS
WILLISTON      CLOUDY    63  51  65 W13       29.59R
6HR MIN TEMP:  61; 6HR MAX TEMP:  67;

MINOT          CLOUDY    65  55  70 S9        29.52S
$$

NDZ018>021-031>035-040>046-191300-
SOUTHWEST NORTH DAKOTA

CITY           SKY/WX    TMP DP  RH WIND       PRES   REMARKS
BISMARCK       LGT RAIN  67  60  78 SW14G24   29.63R
6HR MIN TEMP:  64; 6HR MAX TEMP:  69; 6HR PCP:  0.02;

GARRISON         N/A     64  58  80 W3        29.57S
6HR MIN TEMP:  60; 6HR MAX TEMP:  68;

HETTINGER ARPT CLOUDY    59  55  87 W7        29.69S
$$

NDZ004>008-012>016-024-026-027-054-191300-
NORTHEAST NORTH DAKOTA

CITY           SKY/WX    TMP DP  RH WIND       PRES   REMARKS
GRAND FORKS    CLOUDY    64  58  80 S15       29.56F
GRND FRKS AFB  CLOUDY    65  62  92 S18       29.54F
DEVILS LAKE    CLOUDY    66  57  72 SW16G22   29.52S
$$

NDZ022-023-025-028>030-036>039-047>053-191300-
SOUTHEAST NORTH DAKOTA

CITY           SKY/WX    TMP DP  RH WIND       PRES   REMARKS
FARGO          LGT RAIN  63  56  78 S16G28    29.64F
6HR MIN TEMP:  63; 6HR MAX TEMP:  66; 6HR PCP: TRACE;

$$




USA.gov is the U.S. government's official web portal to all federal, state and local government web resources and services.